Location: Schommer Observatory
(40.5200°N, 74.4500°W)
Time: 20:37:03
(UTC-05:00)

Vanguard 2 - All Passes

Search period start: 20 February 2018 00:00
Search period end: 02 March 2018 00:00
Orbit: 553 x 2939 km, 32.9° (Epoch: 19 February)

Date Brightness Start Highest point End Pass type
(mag) Time Alt. Az. Time Alt. Az. Time Alt. Az.
20 Feb - 13:41:23 10° SSE 13:43:38 10° SE 13:45:46 10° SE daylight
20 Feb - 15:43:14 10° SSW 15:53:46 27° SSE 16:01:06 10° ESE daylight
20 Feb - 17:53:14 10° WSW 18:03:18 43° S 18:09:31 10° ESE visible
20 Feb - 20:04:37 10° WSW 20:11:52 41° S 20:16:36 10° ESE visible
20 Feb - 22:16:03 10° WSW 22:19:21 17° SSW 22:22:09 10° SSE visible
21 Feb - 13:53:46 10° S 14:01:42 16° SSE 14:08:16 10° ESE daylight
21 Feb - 16:00:14 10° SW 16:11:52 34° SSE 16:19:33 10° E daylight
21 Feb - 18:11:10 10° WSW 18:21:19 47° S 18:27:31 10° ESE visible
21 Feb - 20:22:50 10° W 20:29:45 37° SSW 20:34:22 10° SE visible
21 Feb - 22:35:23 10° SW 22:36:59 11° SW 22:38:28 10° SSW night (unlit)
22 Feb - 14:09:07 10° SSW 14:19:45 22° SSE 14:27:56 10° ESE daylight
22 Feb - 16:17:37 10° SW 16:29:56 41° SSE 16:37:47 10° E daylight
22 Feb - 18:29:13 10° WSW 18:39:20 50° S 18:45:28 10° ESE visible
22 Feb - 20:41:07 10° W 20:47:34 32° SSW 20:51:59 10° SE visible
23 Feb - 12:26:05 10° SE 12:27:21 10° SE 12:28:37 10° SE daylight
23 Feb - 14:25:24 10° SSW 14:37:49 29° SSE 14:46:52 10° E daylight
23 Feb - 16:35:17 10° SW 16:48:00 47° S 16:55:55 10° E daylight
23 Feb - 18:47:23 10° WSW 18:57:19 50° S 19:03:21 10° ESE visible
23 Feb - 20:59:31 10° W 21:05:17 25° SSW 21:09:25 10° SSE visible
24 Feb - 12:36:50 10° S 12:45:20 16° SE 12:52:44 10° ESE daylight
24 Feb - 14:42:14 10° SW 14:55:51 36° SSE 15:05:24 10° E daylight
24 Feb - 16:53:09 10° WSW 17:06:04 52° S 17:13:57 10° E daylight
24 Feb - 19:05:36 10° W 19:15:16 47° SSW 19:21:09 10° ESE visible
24 Feb - 21:18:09 10° WSW 21:22:54 19° SW 21:26:32 10° SSE visible
25 Feb - 12:51:48 10° S 13:03:17 22° SSE 13:12:46 10° ESE daylight
25 Feb - 14:59:28 10° SW 15:13:55 42° SSE 15:23:42 10° E daylight
25 Feb - 17:11:12 10° WSW 17:24:08 55° S 17:31:55 10° ESE daylight
25 Feb - 19:23:53 10° W 19:33:07 42° SSW 19:38:53 10° SE visible
25 Feb - 21:37:21 10° WSW 21:40:25 14° SW 21:43:01 10° S visible
26 Feb - 13:07:49 10° SSW 13:21:14 29° SSE 13:31:54 10° E daylight
26 Feb - 15:17:01 10° SW 15:32:00 49° SSE 15:41:52 10° E daylight
26 Feb - 17:29:21 10° WSW 17:42:10 56° S 17:49:51 10° ESE daylight
26 Feb - 19:42:14 10° W 19:50:54 36° SSW 19:56:28 10° SE visible
27 Feb - 11:20:57 10° SSE 11:28:38 14° SE 11:35:49 10° ESE daylight
27 Feb - 13:24:26 10° SSW 13:39:13 35° SSE 13:50:35 10° E daylight
27 Feb - 15:34:48 10° WSW 15:50:05 54° S 15:59:57 10° E daylight
27 Feb - 17:47:34 10° W 18:00:10 55° S 18:07:42 10° ESE daylight
27 Feb - 20:00:41 10° W 20:08:34 29° SSW 20:13:51 10° SSE visible
28 Feb - 11:35:14 10° S 11:46:26 20° SE 11:56:34 10° ESE daylight
28 Feb - 13:41:31 10° SW 13:57:13 42° SSE 14:09:00 10° E daylight
28 Feb - 15:52:46 10° WSW 16:08:11 58° S 16:17:59 10° E daylight
28 Feb - 18:05:51 10° W 18:18:07 52° SSW 18:25:31 10° ESE visible
28 Feb - 20:19:22 10° W 20:26:07 23° SW 20:30:57 10° SSE visible
01 Mar - 11:50:54 10° SSW 12:04:15 27° SE 12:16:03 10° E daylight
01 Mar - 13:58:55 10° SW 14:15:15 49° SSE 14:27:14 10° E daylight
01 Mar - 16:10:53 10° WSW 16:26:16 60° S 16:35:57 10° ESE daylight
01 Mar - 18:24:11 10° W 18:35:58 46° SSW 18:43:13 10° SE visible
01 Mar - 20:38:29 10° WSW 20:43:34 16° SW 20:47:31 10° S visible
